Location: Unspecified
(0.0000°N, 0.0000°E)
Time: 19:31:38
(UTC+01:00)

H-2A R/B - Visible Passes

Search period start: 20 December 2014 00:00
Search period end: 30 December 2014 00:00
Orbit: 261 x 33569 km, 28.1° (Epoch: 19 December)

Date Brightness Start Highest point End Pass type
(mag) Time Alt. Az. Time Alt. Az. Time Alt. Az.
20 Dec 6.6 02:52:10 51° N 10:35:30 75° ENE 11:45:05 10° ESE visible
22 Dec 6.6 04:01:20 43° NNW 12:18:59 83° SW 12:58:19 10° SE visible
23 Dec 10.1 03:58:27 10° ENE 06:44:04 23° ENE 07:56:49 10° E visible
24 Dec 6.4 05:10:20 26° NW 13:47:20 62° SW 14:09:52 10° SE visible
25 Dec 7.2 00:49:53 26° NE 00:49:53 26° NE 09:26:40 10° ESE visible
26 Dec 6.0 06:19:42 10° WNW 08:55:09 50° NW 15:20:16 10° SSE visible
27 Dec 7.0 01:58:39 42° NNE 09:22:58 66° ENE 10:44:38 10° ESE visible
29 Dec 6.9 03:07:16 48° N 10:58:26 89° ENE 11:58:21 10° SE visible
